Location: Castelbiague
(43.0361°N, 0.9246°E)
Time: 16:24:35
(UTC+00:00)

Cosmos 1459 Rocket - Pass Details

Date: 17 June 2021
Orbit: 937 x 999 km, 83.0° (Epoch: 31 July)

Event Time Altitude Azimuth Distance (km) Brightness Sun altitude
Rises 21:24:59 0° 351° (N) 3,609 8.2 -14.9°
Reaches altitude 10° 21:27:29 10° 352° (N) 2,659 7.3 -15.1°
Maximum altitude 21:33:33 88° 267° (W) 945 3.9 -15.8°
Enters shadow 21:37:54 20° 175° (S) 2,017 5.1 -16.2°
